Location: Norwich
(52.6280°N, 1.3030°E)
Time: 09:58:53
(UTC+01:00)

ISS - Visible Passes

Search period start: 13 May 2021 00:00
Search period end: 23 May 2021 00:00
Orbit: 417 x 422 km, 51.6° (Epoch: 13 May)

Date Brightness Start Highest point End Pass type
(mag) Time Alt. Az. Time Alt. Az. Time Alt. Az.
13 May -3.5 01:05:02 53° ESE 01:05:02 53° ESE 01:07:50 10° E visible
13 May -3.9 02:37:57 11° W 02:41:12 69° S 02:44:34 10° ESE visible
13 May -2.8 04:14:45 10° W 04:17:44 29° SSW 04:20:42 10° SSE visible
14 May -2.4 00:18:38 27° E 00:18:38 27° E 00:20:23 10° E visible
14 May -3.9 01:51:32 19° W 01:53:47 75° S 01:57:10 10° E visible
14 May -3.3 03:27:14 10° W 03:30:24 38° SSW 03:33:34 10° SE visible
14 May -2.0 21:51:43 10° S 21:53:29 14° SE 21:55:15 10° ESE visible
14 May -3.5 23:26:27 10° SW 23:29:41 45° SSE 23:32:56 10° E visible
15 May -3.9 01:02:59 10° W 01:06:22 77° S 01:09:45 10° E visible
15 May -3.6 02:39:46 10° W 02:43:03 48° SSW 02:46:19 10° ESE visible
15 May -3.2 22:39:15 10° SW 22:42:20 34° SSE 22:45:27 10° E visible
16 May -3.9 00:15:33 10° W 00:18:56 74° S 00:22:18 10° E visible
16 May -3.8 01:52:19 10° W 01:55:39 60° SSW 01:58:59 10° ESE visible
16 May -2.5 03:29:25 10° W 03:32:03 21° SSW 03:34:42 10° SSE visible
16 May -2.7 21:52:10 10° SSW 21:55:02 26° SSE 21:57:54 10° E visible
16 May -3.9 23:28:09 10° WSW 23:31:31 66° S 23:34:52 10° E visible
17 May -3.9 01:04:53 10° W 01:08:15 69° S 01:11:37 10° ESE visible
17 May -2.9 02:41:48 10° W 02:45:03 28° SSW 02:47:44 10° SSE visible
17 May -3.7 22:40:48 10° WSW 22:44:06 56° SSE 22:47:26 10° E visible
18 May -3.9 00:17:27 10° W 00:20:49 75° S 00:22:56 21° ESE visible
18 May -2.2 01:54:16 10° W 01:55:49 22° WSW 01:55:49 22° WSW visible
18 May -3.4 21:53:29 10° SW 21:56:43 45° SSE 21:59:58 10° E visible
18 May -3.9 23:30:01 10° W 23:33:23 77° S 23:36:31 12° E visible
19 May -3.2 01:06:48 10° W 01:09:27 41° SW 01:09:27 41° SW visible
19 May -3.9 22:42:35 10° W 22:45:57 74° S 22:49:19 10° E visible
20 May -3.8 00:19:21 10° W 00:22:40 59° SSW 00:23:16 49° SSE visible
20 May -3.8 21:55:11 10° WSW 21:58:32 67° SSE 22:01:53 10° E visible
20 May -3.9 23:31:54 10° W 23:35:16 69° S 23:37:12 23° ESE visible
21 May -1.9 01:08:49 10° W 01:10:08 19° WSW 01:10:08 19° WSW visible
21 May -3.8 22:44:28 10° W 22:47:50 75° S 22:51:10 10° E visible
22 May -3.1 00:21:18 10° W 00:24:06 36° SW 00:24:06 36° SW visible
22 May -3.8 21:57:01 10° W 22:00:23 77° S 22:03:46 10° E visible
22 May -3.5 23:33:48 10° W 23:37:04 48° SSW 23:38:06 34° SSE visible
